Temp
7 7 7 7 7 7 7 7 7 7 7 7 8 10 12 12 12 14 13 13 14 15 14 14 14 14 13 14 14 14 14 14 14 13 13 13 13 14 16 17 18 18 19 19 20 21 21 21 22 22 21 20 20 20 21 21 23 24 25 26 25 25 26 24 23 27 31 33 34 34 34 35 32 32 34 33 31 30 28 27 26 25 23 24 24 22 26
7 7 7 7 7 7 7 7 7 7 7 7 8 10 11 12 13 14 14 13 14 14 13 12 13 13 13 14 14 14 14 13 13 13 12 12 12 11 13 15 16 17 18 19 19 20 20 20 21 21 20 20 20 20 21 21 22 23 22 23 24 24 26 25 22 24 25 27 28 29 31 32 31 32 34 33 33 33 31 30 28 25 23 24 24 22 26
7 7 7 7 7 7 7 7 7 7 7 7 7 9 11 12 13 14 14 14 14 13 12 12 12 12 12 12 13 13 14 14 13 13 12 11 11 10 11 12 14 15 17 18 19 19 20 20 20 20 20 20 20 20 20 21 22 21 21 22 23 24 25 25 23 22 22 22 23 24 26 29 31 32 33 33 34 33 30 27 25 23 23 24 24 23 27
7 7 7 7 7 7 7 7 7 7 7 7 7 9 11 11 12 12 12 14 14 13 13 13 12 12 11 12 12 13 13 14 14 13 13 12 11 10 10 10 12 14 15 17 19 19 19 20 19 20 20 20 20 20 20 21 21 20 21 22 23 24 25 25 23 22 23 22 23 25 28 28 28 29 31 32 33 34 31 26 23 24 24 23 25 26 27
7 7 7 7 7 7 7 7 7 7 7 7 7 10 12 11 11 11 10 11 13 13 13 13 12 12 12 11 12 12 12 13 13 13 13 12 11 11 10 10 10 11 12 14 17 18 18 19 19 19 19 19 20 20 20 21 20 20 22 23 23 23 23 23 23 23 23 24 25 26 27 27 27 28 29 31 33 33 30 26 26 27 24 22 27 29 26
7 7 7 7 7 6 6 7 7 7 7 7 8 10 12 11 11 11 10 9 10 11 11 12 11 12 12 12 12 12 12 12 12 12 12 12 11 10 10 10 9 9 10 11 14 16 17 18 18 17 18 18 19 20 20 20 20 21 22 22 22 22 22 23 23 23 24 25 26 26 26 27 27 28 28 29 30 30 28 27 29 30 25 23 28 30 27
7 7 7 7 7 7 6 7 7 7 7 7 8 10 11 10 10 11 11 10 10 10 11 11 11 11 12 11 11 11 11 11 11 11 12 12 11 9 9 10 10 9 9 10 11 13 14 15 15 16 16 17 18 20 20 20 21 21 21 22 21 21 22 23 23 23 24 25 25 26 26 25 26 27 28 28 29 29 29 29 31 31 28 28 31 29 29
7 7 7 7 7 7 7 6 7 7 7 8 9 10 10 10 9 9 9 9 10 11 11 11 11 11 12 11 11 11 11 11 11 12 12 11 10 9 9 10 10 9 10 10 11 12 12 12 13 14 15 16 17 18 19 19 20 20 20 21 21 21 21 22 22 22 23 24 25 25 25 25 25 25 27 28 28 28 28 29 30 29 28 30 30 28 29
8 8 7 7 7 7 7 7 7 7 7 7 9 10 10 10 9 8 7 8 10 11 11 11 11 11 12 11 11 11 11 11 11 12 12 10 9 8 9 9 9 10 10 10 10 12 12 12 13 14 15 15 16 17 17 18 18 19 19 20 20 21 21 22 22 21 22 24 24 24 25 25 24 24 26 27 27 27 28 29 29 28 27 28 27 25 28
9 8 8 8 7 7 7 7 7 7 7 7 8 10 10 9 9 8 7 8 10 10 11 11 11 11 11 11 11 11 11 12 11 11 11 11 10 10 10 10 10 10 10 11 11 12 12 12 14 15 15 16 16 16 17 17 17 18 18 19 20 20 20 21 22 21 22 23 23 24 24 23 22 24 26 28 28 28 29 29 30 30 29 28 26 27 31
9 8 8 8 8 8 7 7 7 6 6 7 7 9 9 9 8 8 7 7 10 11 11 10 10 11 11 11 11 11 11 12 11 10 10 11 12 12 12 11 11 11 11 12 13 13 13 14 15 15 15 16 16 17 17 17 18 18 18 18 19 20 20 21 21 21 21 22 23 23 22 21 22 26 29 29 29 29 29 29 30 31 31 30 30 32 33
9 9 9 8 8 8 7 7 7 7 6 7 6 7 8 8 8 8 7 7 9 10 10 11 11 11 11 11 11 11 11 11 11 11 11 11 12 12 12 12 11 11 12 14 14 14 14 14 15 16 16 16 16 17 17 17 18 18 18 18 19 19 19 20 21 21 21 22 22 21 21 22 25 27 28 28 28 29 29 29 30 31 31 31 31 32 32
9 9 9 8 8 8 7 7 7 7 7 7 6 6 7 7 7 8 7 7 8 10 10 10 11 11 11 11 11 11 11 11 11 11 11 11 11 12 13 12 12 12 14 14 14 14 13 14 14 15 16 17 17 17 17 17 18 18 19 19 18 19 19 20 21 21 21 21 21 21 22 23 26 27 27 27 27 28 27 26 28 29 29 29 29 30 30
9 9 9 9 8 7 7 7 7 7 7 7 6 6 7 7 7 7 7 7 8 10 10 10 11 11 11 11 11 11 11 11 11 12 12 12 12 12 12 13 13 14 14 14 13 13 13 13 14 15 16 16 16 16 17 18 18 18 19 19 19 19 19 20 20 20 21 21 21 22 22 23 24 25 26 26 27 26 26 25 26 28 27 26 27 27 28
9 9 9 8 7 7 7 7 7 7 7 7 7 7 7 7 7 7 7 7 7 9 9 9 10 11 11 11 11 10 10 11 11 11 12 12 12 12 13 14 14 14 14 13 13 13 13 13 13 14 16 16 16 17 18 18 19 19 19 19 19 19 19 19 19 20 21 21 21 21 21 21 23 25 26 26 26 26 26 25 25 26 26 25 26 26 26
9 9 8 7 7 7 7 7 7 7 7 7 7 7 7 7 6 6 7 7 6 8 10 10 10 10 10 10 11 10 10 10 10 10 11 11 12 12 13 14 14 14 13 13 12 12 12 12 13 14 15 16 16 16 17 18 18 19 19 19 19 18 18 19 19 20 21 20 20 21 21 22 24 26 26 26 26 26 26 24 23 24 25 25 25 26 26
8 8 7 7 7 7 7 7 7 8 8 7 7 7 7 7 6 6 6 6 6 7 10 11 10 10 9 10 10 11 10 10 10 10 10 11 11 12 13 13 14 14 13 12 12 12 12 13 13 14 15 15 15 16 16 18 18 18 18 18 18 17 18 18 18 19 20 20 20 21 21 23 25 25 25 26 26 26 24 22 22 23 24 24 24 25 25
7 7 7 7 7 7 7 7 8 8 8 7 7 7 7 7 6 6 6 6 6 7 10 11 10 9 10 10 10 10 10 10 10 9 10 11 11 11 11 12 13 13 12 12 12 12 12 13 13 13 14 14 15 15 16 16 17 16 16 17 17 17 17 17 17 19 19 20 20 21 22 24 25 25 26 26 26 25 23 22 22 23 23 23 24 24 24
6 6 7 7 7 7 7 8 8 8 8 8 7 7 7 7 7 6 6 6 6 7 10 11 10 10 10 10 10 10 10 10 10 9 9 10 11 11 11 12 12 11 11 12 12 12 12 13 13 13 13 14 14 14 14 14 15 15 15 15 16 17 17 17 17 18 19 20 20 20 22 24 25 25 26 26 24 23 22 22 23 23 24 24 24 23 24
6 7 7 7 7 8 8 8 8 8 8 8 8 8 7 7 7 7 7 7 6 7 8 10 10 10 10 10 10 10 10 10 10 9 9 10 11 11 10 11 11 11 11 11 12 12 13 13 13 13 13 14 14 14 14 14 15 15 15 15 16 16 16 17 18 19 19 19 19 19 20 22 23 23 25 25 23 22 23 24 24 24 24 24 24 23 23
7 7 7 7 7 7 7 8 8 8 8 8 8 8 8 7 7 7 7 7 6 6 8 9 10 10 10 10 10 10 10 10 10 10 9 10 10 10 9 10 11 11 11 11 12 12 13 13 14 14 13 14 14 14 14 14 15 15 16 15 16 16 16 17 18 18 18 19 20 20 19 20 21 22 22 22 22 22 22 24 25 25 24 23 24 24 23
7 7 7 7 7 7 7 7 8 8 8 8 7 8 8 7 7 7 7 7 6 6 7 8 9 9 9 9 10 10 10 10 10 10 10 10 10 10 10 10 10 10 11 11 11 12 12 13 13 13 13 14 14 14 14 14 14 15 16 15 15 15 14 14 15 15 16 18 19 19 19 19 21 22 21 20 20 21 22 22 24 24 24 23 23 24 23
7 7 7 7 7 7 7 7 7 8 8 8 7 8 8 7 7 7 6 6 6 6 7 7 7 8 9 10 10 10 10 10 10 11 10 9 9 10 10 10 10 10 11 10 10 11 11 11 12 12 12 13 14 13 14 14 14 15 15 15 16 16 15 14 14 15 16 17 18 18 18 19 21 21 20 19 19 20 20 20 21 23 23 23 23 23 23
7 7 7 7 7 7 7 7 7 7 8 8 8 8 8 8 7 7 6 6 6 6 7 7 7 8 10 11 11 11 11 11 10 11 11 10 9 9 10 11 11 10 10 11 11 11 10 10 11 11 11 13 13 13 13 14 14 15 15 15 16 16 15 14 14 14 15 16 18 19 19 19 20 20 20 20 19 18 18 19 20 21 22 22 23 23 22
7 7 7 7 7 7 7 7 7 7 7 7 8 8 8 7 7 7 7 7 7 7 7 8 8 9 10 10 11 11 11 11 11 11 10 10 10 10 11 12 12 11 11 11 11 11 10 10 11 11 11 12 13 13 13 13 14 14 14 14 15 16 15 14 15 15 15 16 17 18 18 18 19 19 19 19 18 17 17 18 19 20 21 22 22 22 22
7 7 7 7 7 7 7 7 7 7 7 7 7 8 8 8 7 7 7 7 7 7 7 7 8 9 9 9 10 11 11 11 11 11 11 11 11 11 11 12 12 11 11 11 11 10 10 10 10 10 10 12 13 13 13 14 14 14 14 14 15 15 14 14 15 15 15 16 17 17 17 18 19 20 19 19 17 17 17 18 19 20 21 21 22 22 22
7 7 7 7 7 7 7 7 7 7 7 7 7 8 8 8 7 7 7 7 7 7 7 8 9 10 10 10 11 11 11 11 12 12 12 11 11 11 11 11 11 11 11 11 10 10 9 9 10 10 11 12 13 13 13 14 14 13 14 15 16 15 14 15 15 14 15 16 17 17 17 17 19 19 18 17 17 17 17 18 18 19 20 21 21 22 22
7 7 7 7 7 7 7 7 7 7 7 7 8 8 8 8 7 7 8 7 8 8 8 9 10 10 10 11 12 12 12 12 12 12 12 12 11 11 11 11 10 10 10 10 10 10 10 10 11 11 12 13 12 12 13 14 13 13 14 15 16 15 15 15 15 14 15 17 17 17 16 16 17 17 17 17 17 17 17 17 17 18 20 21 21 21 21
7 7 7 7 7 7 7 7 7 7 7 8 8 8 8 8 8 8 8 7 7 8 8 8 9 10 11 12 12 12 12 12 12 13 13 13 12 12 12 11 10 10 10 10 10 10 11 11 12 12 13 13 12 12 13 13 13 13 14 15 16 15 15 15 15 15 15 16 16 16 16 15 16 17 16 16 16 16 16 17 18 18 19 20 21 21 21
7 7 7 7 7 7 7 7 7 7 7 8 8 8 8 9 8 8 8 7 7 7 7 7 8 10 12 12 12 12 12 13 13 13 13 13 13 13 12 11 11 11 10 10 10 10 11 11 12 12 13 13 12 11 12 12 12 14 15 15 15 15 15 15 15 14 14 15 15 15 15 15 16 16 16 16 16 16 16 17 18 18 19 20 21 21 20
7 7 7 7 7 7 8 8 8 8 8 8 9 9 9 9 9 8 8 7 7 7 7 7 8 10 11 12 12 12 13 13 13 13 13 13 13 13 13 12 11 11 10 10 10 10 10 11 11 12 13 13 12 11 11 12 12 13 14 14 14 13 13 14 14 14 14 14 14 15 15 15 15 15 16 16 16 16 16 17 18 19 19 19 20 21 21
7 7 7 7 7 8 9 10 10 9 8 9 9 9 9 9 9 9 8 7 7 7 7 7 8 9 11 12 13 13 13 13 13 13 13 13 13 13 13 12 12 11 11 10 10 10 11 11 11 12 13 13 12 11 11 11 11 12 14 14 14 13 13 13 13 14 14 14 14 13 13 14 15 15 16 16 16 16 16 17 19 19 19 19 20 20 21
7 7 7 7 8 9 10 11 10 9 8 8 9 8 8 8 8 9 8 7 7 7 8 8 8 8 10 12 13 13 12 12 12 13 12 12 13 13 13 12 12 12 11 11 10 10 12 12 12 12 13 13 12 11 11 11 12 13 14 14 15 15 14 14 14 14 14 14 14 13 13 14 15 15 16 16 16 16 16 17 18 19 19 19 19 19 20
7 7 7 7 9 10 10 10 10 9 8 9 9 9 8 8 8 8 8 8 7 8 8 8 8 8 10 12 12 12 11 11 12 12 11 12 13 13 12 12 11 11 11 11 11 11 11 12 12 11 12 12 11 10 11 12 13 14 14 14 15 14 14 13 13 13 14 14 14 14 14 15 15 15 15 15 15 16 16 17 18 18 19 19 19 19 19
8 7 7 8 9 9 10 10 9 9 9 10 9 9 8 8 7 7 7 8 8 8 8 8 8 8 9 10 11 11 11 11 11 12 11 11 12 12 12 11 10 10 11 11 11 10 11 11 11 10 10 10 10 10 11 13 13 14 14 14 14 14 13 12 12 13 14 14 14 15 15 15 15 15 14 14 15 16 17 17 18 18 19 19 18 18 19
9 8 9 9 9 9 10 10 10 10 10 10 9 9 8 7 7 7 7 8 8 8 8 8 8 8 8 9 9 10 10 10 11 11 11 11 11 11 11 11 10 10 11 11 10 10 10 11 10 9 9 10 10 10 11 12 12 12 13 13 13 13 12 12 12 12 13 14 14 14 14 14 14 15 15 15 16 17 17 17 18 18 18 18 18 18 18
10 10 9 9 8 10 12 11 10 10 9 9 8 8 8 7 7 7 7 7 8 8 7 7 7 8 8 8 9 10 10 10 10 10 10 10 11 11 11 10 10 10 10 10 9 10 10 10 10 9 9 10 10 10 11 11 11 11 11 12 12 13 12 12 12 12 13 13 13 13 13 14 14 15 15 15 16 17 17 18 19 19 19 19 18 18 18
12 11 10 11 12 14 14 12 10 9 8 8 8 9 8 8 8 7 7 7 8 8 7 7 7 8 8 7 8 10 10 9 10 10 10 10 11 10 10 10 10 10 10 9 9 9 10 10 9 9 9 9 10 10 11 11 11 11 11 11 12 12 12 12 13 13 13 13 13 13 13 14 15 15 16 16 17 17 17 18 19 19 19 19 18 18 18
13 12 13 14 15 15 13 11 9 8 8 8 9 10 10 10 9 9 8 8 8 7 7 7 7 8 8 8 9 10 10 9 9 10 10 10 10 10 10 10 10 10 10 10 9 9 9 9 9 9 9 9 9 10 11 12 12 12 12 12 12 13 12 13 14 14 14 15 15 15 15 15 15 16 16 16 17 17 17 19 19 19 19 19 18 18 18
14 14 15 16 15 12 11 9 8 9 10 10 11 11 11 10 10 10 10 9 9 9 8 8 8 8 8 8 9 10 10 10 10 10 10 10 10 10 11 10 10 9 10 10 10 8 8 9 9 9 9 8 9 10 11 11 12 12 12 12 13 13 13 14 15 15 15 16 16 16 16 16 16 16 16 16 17 17 18 19 19 19 19 18 18 18 19
13 14 15 14 12 10 10 9 9 10 13 14 13 13 12 12 11 11 11 12 12 11 9 8 9 10 9 9 9 9 10 10 10 10 11 11 11 11 11 10 9 10 10 11 10 9 8 9 10 9 9 9 10 10 11 11 11 12 12 12 12 13 13 14 14 15 15 16 16 16 16 16 16 16 15 16 16 16 17 18 19 18 18 18 18 19 19
12 12 12 11 10 10 10 11 11 13 14 15 14 14 14 13 13 13 12 13 13 12 11 11 11 12 11 10 10 10 11 11 10 11 12 12 11 11 11 10 10 11 11 11 11 10 10 10 10 9 9 9 10 10 10 11 11 11 11 12 12 12 13 13 13 13 14 15 15 16 16 16 16 16 15 16 15 15 16 17 17 17 17 17 16 17 18
12 11 11 10 11 12 12 13 14 14 13 13 13 13 13 14 14 14 14 13 13 14 13 12 12 13 13 12 12 11 11 10 11 12 13 13 12 12 12 12 11 12 11 11 11 11 10 10 9 9 9 10 10 10 10 10 11 11 11 12 12 12 12 12 12 12 13 13 13 13 14 13 13 14 14 15 14 14 14 14 15 15 15 15 15 15 16
14 13 13 14 14 14 13 14 14 14 12 12 12 12 12 13 13 13 13 13 13 14 14 14 14 14 14 14 14 13 12 12 12 13 14 14 14 13 13 12 12 12 12 11 11 10 9 9 9 9 10 10 10 10 10 10 10 11 11 11 12 12 12 12 12 12 12 12 12 12 12 12 12 12 13 13 13 13 13 13 13 13 14 14 14 14 14
15 15 16 15 14 14 13 13 13 13 12 12 12 12 12 13 13 13 13 13 12 13 14 14 14 15 15 15 15 15 14 14 14 14 14 15 14 14 13 13 13 13 12 11 11 10 9 9 9 9 10 10 10 10 10 10 10 11 11 11 11 11 12 12 12 12 11 11 11 11 12 11 11 11 11 12 12 12 12 12 12 12 12 13 13 13 13
16 16 16 14 13 14 14 13 12 13 13 14 14 14 14 14 15 15 15 15 14 14 14 14 14 15 15 16 16 16 15 15 15 14 14 14 14 14 14 14 13 13 12 11 10 10 9 9 9 10 10 10 10 10 10 10 10 10 11 11 11 11 11 11 12 11 11 11 11 11 11 11 11 11 11 11 11 11 11 11 12 12 12 12 12 12 12
16 16 16 14 14 15 15 14 14 15 15 16 16 16 16 16 16 16 16 16 16 16 16 16 15 14 15 15 16 16 16 16 15 15 15 15 14 14 15 14 12 11 10 10 10 9 9 9 10 10 10 10 10 10 10 10 10 10 10 10 10 11 11 11 11 11 11 11 11 11 10 11 11 11 10 10 10 10 10 11 11 11 11 11 11 11 11
16 15 15 14 14 15 16 16 17 17 17 17 17 17 17 18 17 17 17 17 17 17 17 16 15 15 15 15 15 16 16 16 15 15 15 15 14 13 13 12 11 10 10 9 9 9 9 10 10 10 10 11 11 11 11 11 10 10 10 10 10 10 10 11 11 11 11 11 11 10 10 10 10 10 10 10 10 10 10 10 10 11 11 11 11 11 11
16 15 15 15 16 17 17 18 18 18 17 17 17 17 17 17 17 17 17 17 17 18 18 17 16 16 15 15 15 15 14 15 15 15 15 14 13 12 12 11 10 10 10 10 10 10 10 10 11 11 11 11 11 11 11 11 11 11 11 11 11 11 11 11 11 11 11 11 11 11 10 10 10 10 10 10 10 9 10 10 10 10 10 10 10 10 10
16 15 15 16 17 17 17 17 17 17 17 17 17 17 17 17 17 17 17 17 17 18 18 18 17 17 16 16 15 14 14 14 15 14 14 13 13 13 12 11 10 10 11 11 11 11 12 12 13 12 12 12 12 12 12 12 11 11 11 11 11 11 11 11 11 11 11 11 11 11 11 11 10 10 10 10 10 10 10 10 10 10 10 10 10 10 10
16 16 16 16 16 16 16 17 16 16 16 16 16 16 16 16 16 16 17 17 18 18 17 17 16 16 15 14 14 14 14 15 15 14 13 12 12 12 11 10 11 11 12 12 12 13 13 13 13 13 13 13 13 12 13 13 12 12 12 12 12 12 12 12 11 11 11 11 11 11 11 11 11 11 10 10 10 10 10 10 10 10 10 10 10 10 10
16 16 16 16 17 16 17 17 16 16 16 16 16 16 16 16 16 16 17 17 17 17 17 16 16 15 14 13 14 15 15 15 14 14 13 12 12 11 11 11 12 12 12 12 12 13 13 13 13 13 13 13 13 13 13 13 13 13 13 13 12 12 12 12 12 11 11 11 11 11 11 11 11 11 11 11 11 11 11 10 10 11 11 11 11 10 10
Height
851 849 846 844 842 839 837 834 830 827 823 819 817 812 807 804 800 795 795 794 787 781 780 780 779 780 781 779 775 774 773 772 770 769 770 767 764 760 751 742 737 732 727 725 721 716 715 711 705 704 709 712 713 709 706 702 695 692 692 689 689 689 688 689 684 672 665 660 655 657 658 661 672 674 670 674 679 681 690 696 694 699 704 700 709 721 698
851 848 846 844 842 840 837 834 831 828 825 823 820 815 809 806 800 795 795 794 788 785 788 789 787 785 784 780 776 774 774 775 773 773 775 774 774 773 763 752 747 739 731 729 724 719 718 716 710 709 712 713 713 709 707 704 699 699 701 698 694 692 689 690 693 692 689 684 679 675 667 664 669 668 665 668 670 675 682 683 687 697 697 693 709 716 692
850 848 846 844 842 840 837 835 832 829 827 825 822 819 812 806 799 795 795 794 790 790 793 795 793 790 788 783 779 776 774 774 775 774 775 777 779 780 774 766 758 747 738 730 723 720 720 718 715 713 713 713 713 711 709 707 703 703 705 700 696 695 688 685 692 698 700 698 693 685 673 666 667 665 663 665 666 672 681 685 694 704 698 690 699 701 685
850 848 846 844 842 840 837 835 833 830 828 826 824 821 815 808 803 800 799 794 791 791 792 793 794 792 791 787 782 780 776 773 774 774 773 775 778 779 778 775 765 753 745 735 725 721 720 718 718 717 715 715 714 712 710 709 707 707 704 697 695 695 691 689 693 693 690 692 690 681 670 667 669 668 665 665 665 666 675 685 692 696 697 696 692 689 686
849 847 846 844 842 840 838 835 833 831 829 827 825 820 815 811 808 809 810 803 795 793 792 792 794 792 790 789 786 782 779 776 775 775 773 776 779 777 776 779 777 769 761 747 733 728 724 721 722 722 721 717 714 712 711 709 709 708 702 697 696 697 696 695 697 696 692 691 689 683 676 672 670 669 669 668 667 666 672 682 682 682 695 701 688 683 691
848 847 845 844 842 840 838 836 834 832 830 827 825 820 816 815 813 812 816 813 805 800 797 795 795 792 789 788 787 784 783 780 780 779 775 775 781 782 778 780 782 780 775 765 750 739 732 728 728 729 727 724 717 711 711 711 710 707 703 700 701 703 699 696 697 698 694 690 687 685 684 682 678 676 675 674 673 673 675 678 675 675 689 694 682 682 690
847 846 845 843 842 840 838 836 834 832 830 828 826 822 818 818 816 812 813 813 809 804 801 798 795 791 789 788 788 788 787 783 781 780 777 775 781 787 784 780 780 780 778 773 764 753 746 744 742 738 735 731 723 717 714 712 710 709 707 706 706 706 704 701 701 700 695 692 690 688 687 688 688 684 681 681 679 678 679 680 676 675 681 682 679 683 685
846 845 844 842 840 839 837 836 834 832 830 828 825 823 821 820 819 818 816 813 807 802 799 797 794 790 788 787 787 788 787 785 783 780 778 778 783 788 785 780 780 779 775 774 769 761 758 758 754 747 742 736 729 725 722 719 717 716 713 711 709 709 709 707 704 702 698 693 690 690 691 691 691 688 684 683 684 683 684 683 681 682 685 683 683 689 685
845 843 842 840 839 837 836 835 833 831 830 828 825 822 821 821 821 821 821 815 807 802 799 796 794 790 787 786 787 787 786 785 785 780 776 782 790 790 787 784 781 777 773 772 770 763 761 761 754 749 746 741 737 734 729 728 728 723 719 718 714 712 712 707 706 708 701 693 694 694 691 692 694 690 686 684 685 684 682 681 681 684 687 688 689 691 685
844 842 840 838 837 835 834 833 831 830 829 828 826 821 819 820 820 819 822 817 807 802 799 795 794 790 788 788 788 788 785 782 784 783 778 780 784 783 782 782 780 776 772 771 767 763 761 758 753 749 746 741 739 737 732 730 732 729 726 724 718 717 717 710 710 712 701 693 698 696 696 704 701 685 678 678 679 680 678 677 676 675 679 686 687 682 674
842 840 838 836 834 833 831 830 829 828 827 826 825 822 819 820 819 818 822 817 805 799 798 796 794 791 788 788 787 785 784 782 782 785 782 777 775 775 775 775 775 773 769 765 762 759 756 753 749 744 742 739 736 735 732 730 729 728 728 726 721 720 721 715 712 714 707 698 699 701 706 711 695 672 665 669 672 675 676 674 671 669 669 672 672 669 665
840 838 836 834 832 830 828 828 826 826 825 824 824 821 819 819 819 817 820 817 806 799 797 794 793 791 788 787 787 784 783 782 781 782 781 776 774 773 770 770 771 768 764 760 757 755 752 748 744 739 736 736 733 731 731 729 727 725 725 726 725 722 722 717 714 715 710 700 704 715 715 700 679 667 667 668 668 670 673 674 670 668 668 668 668 668 666
837 835 833 831 829 827 825 825 824 823 822 821 820 819 818 818 818 816 816 816 809 801 798 793 789 789 787 785 785 783 782 781 779 778 778 775 774 772 768 767 767 764 761 758 755 754 752 746 741 736 731 729 729 729 727 725 724 722 720 722 724 724 722 718 714 715 713 708 711 714 703 685 674 673 672 670 672 675 679 681 676 671 672 674 675 672 668
835 832 830 828 825 824 823 821 821 820 819 818 817 816 815 816 816 814 814 815 808 800 798 796 787 784 785 784 784 783 780 779 778 775 774 773 771 771 768 765 763 761 759 757 755 754 752 746 741 734 727 727 730 727 721 719 719 719 719 720 721 723 723 720 717 714 712 712 708 698 692 689 683 679 675 673 675 678 680 682 678 673 675 678 679 678 674
831 829 826 824 822 821 819 818 817 816 815 815 814 812 812 812 813 812 811 812 809 801 797 795 788 785 786 785 784 783 781 779 778 775 772 770 769 769 766 764 762 760 757 756 755 752 749 746 742 733 724 723 725 720 715 714 713 712 714 716 718 721 722 722 722 715 709 712 709 702 703 701 686 676 675 673 674 675 676 680 681 677 675 678 679 679 678
828 825 822 820 819 817 816 814 813 812 812 812 811 809 808 808 810 810 809 810 810 802 793 790 789 789 789 786 783 783 782 780 780 776 771 769 769 767 764 763 762 759 758 758 756 753 750 747 743 735 726 722 722 720 716 713 710 710 712 713 717 722 721 721 723 718 711 713 714 709 706 695 678 673 675 673 673 672 677 686 687 679 676 678 678 678 678
824 821 818 817 815 814 812 810 809 808 808 808 807 805 804 804 805 807 807 807 807 800 790 788 790 790 789 786 782 780 781 780 780 780 776 772 769 766 764 763 760 758 758 758 756 755 751 745 741 737 731 728 727 725 720 713 712 715 716 714 718 724 724 725 727 721 713 713 710 703 695 685 677 675 675 672 670 672 686 699 693 680 679 680 678 679 678
820 817 814 813 812 810 808 806 805 804 803 803 802 800 799 799 801 803 804 804 804 798 789 788 790 788 786 786 783 781 781 780 780 781 777 771 768 767 766 764 760 759 760 757 754 753 749 743 742 742 737 733 731 729 725 721 718 720 721 719 720 723 723 724 725 719 715 715 712 703 691 680 676 675 671 671 674 681 694 699 688 679 681 679 677 679 678
817 814 811 809 808 806 804 802 801 800 799 798 798 795 793 794 797 798 800 801 801 795 787 786 788 786 784 785 783 781 781 780 780 782 779 772 769 769 766 763 762 762 761 758 754 752 748 743 743 744 739 734 733 733 734 732 727 726 728 727 724 722 721 722 722 718 713 710 710 708 697 681 675 675 670 670 682 691 690 685 679 678 678 676 676 678 677
813 810 808 806 804 802 800 799 797 796 795 794 793 791 788 790 792 793 794 795 796 793 788 785 787 785 783 784 783 780 780 779 779 781 780 774 771 771 768 764 764 763 761 759 754 749 747 742 740 742 740 735 734 736 736 734 729 727 728 727 723 721 721 718 714 712 712 711 712 715 707 688 680 682 678 677 685 689 682 677 676 676 674 674 676 675 675
809 807 804 802 800 799 797 795 793 792 791 790 790 787 785 785 787 788 788 790 793 792 787 784 784 783 782 781 780 779 779 778 777 778 777 774 774 776 772 767 766 765 761 759 754 749 747 744 740 741 741 736 735 736 734 733 730 725 724 725 723 723 724 718 710 710 713 710 706 706 702 692 687 689 689 687 687 684 680 678 676 674 674 675 674 673 675
806 803 801 799 796 795 793 791 790 788 787 786 785 784 782 781 783 784 785 786 788 788 784 782 782 781 780 779 777 776 776 776 775 776 777 775 774 774 772 769 769 768 764 762 758 753 750 748 744 743 741 737 736 736 734 734 731 724 723 726 725 725 728 728 724 721 716 708 700 698 697 693 689 690 692 692 690 686 684 682 678 676 676 676 674 674 674
802 799 797 795 793 791 789 787 786 785 783 783 781 779 779 778 779 781 783 784 785 783 781 781 781 779 776 773 772 772 772 773 773 773 775 776 774 771 770 769 769 768 766 766 764 760 757 756 752 750 747 741 738 738 735 732 729 726 724 724 721 721 727 731 729 724 717 709 703 700 699 693 688 689 692 694 693 691 690 689 685 681 679 678 676 674 674
799 796 794 791 789 787 785 783 783 782 779 779 778 776 775 775 775 778 780 782 784 783 780 779 778 775 770 767 767 767 767 769 770 769 770 773 773 770 768 766 767 767 766 766 765 764 764 761 757 756 753 745 740 741 738 732 728 725 725 723 719 719 723 728 728 725 723 716 704 699 699 696 693 693 693 693 695 696 696 694 690 686 683 680 678 675 674
795 792 790 788 786 784 782 780 780 778 776 774 774 773 772 772 772 774 777 778 781 782 779 775 772 769 767 766 766 765 765 765 766 767 767 768 768 767 764 763 764 765 764 764 763 764 765 763 758 758 755 746 741 740 737 733 729 727 726 725 722 720 723 726 724 722 722 717 707 702 702 699 696 696 694 694 697 699 697 695 692 688 685 682 679 676 674
792 788 786 784 782 780 779 777 776 775 773 771 770 769 769 769 770 771 773 774 776 779 779 775 769 766 766 766 764 763 763 763 763 763 763 764 764 764 763 762 763 763 762 763 763 764 765 763 759 759 755 747 742 740 736 732 730 729 728 724 720 720 723 723 720 718 717 712 707 705 703 697 692 691 693 696 699 699 698 695 692 688 685 683 680 678 675
788 785 782 780 779 777 775 773 772 770 769 767 767 766 766 766 768 769 770 773 774 775 775 771 766 764 764 762 760 760 760 759 759 759 759 760 760 761 762 761 762 761 761 761 761 762 764 762 759 756 751 743 740 738 735 731 729 728 725 719 715 718 720 718 718 720 715 707 703 703 704 698 691 690 694 697 699 699 697 695 693 690 687 684 682 679 676
785 782 779 777 776 774 771 769 767 766 765 764 764 764 764 765 766 767 768 770 772 771 769 766 763 763 761 757 755 756 756 756 756 756 756 756 757 759 759 760 761 761 761 761 760 759 759 756 752 748 743 740 740 736 730 729 729 726 720 713 712 715 715 713 714 714 708 702 699 701 703 701 695 694 697 698 698 699 697 695 694 692 687 684 682 681 678
782 779 777 774 772 769 767 765 763 762 762 761 762 763 763 763 764 766 767 768 769 770 769 768 764 761 757 753 751 752 753 752 752 752 752 753 754 755 756 758 759 759 759 760 758 756 753 750 746 743 739 740 742 736 729 728 726 719 711 708 709 710 710 710 711 709 705 703 703 703 704 702 697 696 697 697 697 698 696 693 691 690 687 684 681 680 678
778 776 774 771 769 765 762 761 760 759 759 760 761 763 763 763 763 765 765 767 768 769 771 771 765 758 752 750 750 750 749 749 749 749 749 749 749 751 753 755 755 756 758 758 756 755 752 747 744 741 737 738 741 739 732 729 723 713 706 707 708 708 707 707 707 707 706 705 704 704 703 700 696 695 695 695 696 696 694 692 689 687 686 684 681 680 678
774 773 771 768 764 761 758 757 757 757 758 759 760 761 762 763 763 764 764 766 768 769 770 769 765 758 752 748 747 747 746 746 746 746 746 746 745 746 748 750 751 753 755 755 753 752 749 746 743 739 733 734 739 738 732 730 724 712 704 705 707 708 707 706 704 704 705 703 703 702 700 697 695 694 691 690 692 693 692 689 685 684 685 684 681 680 677
771 769 767 765 761 758 756 756 755 757 759 760 760 761 761 762 763 763 763 765 767 768 769 769 766 760 752 745 743 744 745 744 743 742 742 742 742 742 743 745 747 748 749 750 751 749 745 742 741 737 732 732 734 733 731 728 721 707 699 700 703 704 704 703 701 700 700 700 701 700 696 693 692 691 687 687 689 690 688 684 681 681 682 682 681 679 675
768 766 765 762 759 757 757 756 756 758 759 760 760 761 761 762 763 763 763 765 766 767 768 767 767 763 754 746 742 743 744 743 741 740 740 740 739 740 741 742 744 745 746 747 748 744 739 737 736 734 730 728 730 731 728 719 708 698 695 697 697 696 696 697 696 695 693 693 694 694 691 688 687 686 684 684 684 684 683 681 680 679 680 680 681 679 676
765 763 762 760 759 758 758 758 758 759 760 760 761 761 761 762 762 763 764 765 766 768 767 766 767 764 756 747 742 743 744 743 740 738 739 738 737 738 739 740 743 745 744 743 743 741 737 735 734 733 729 728 731 731 721 706 697 694 694 692 690 691 692 691 690 688 686 684 684 683 682 682 683 683 683 683 680 678 678 678 677 677 678 678 679 678 676
762 762 760 759 759 759 759 760 761 761 761 761 761 761 761 762 762 764 765 765 766 768 768 766 767 765 759 751 746 744 745 744 742 740 739 738 736 737 737 740 745 746 742 740 741 740 738 735 735 734 732 731 733 728 712 698 693 692 690 687 686 686 688 687 685 682 679 677 676 675 676 678 680 680 681 681 678 675 674 674 673 674 676 676 677 678 677
760 760 759 758 759 760 760 761 762 761 761 762 762 761 762 762 763 765 766 766 767 768 767 766 766 765 762 759 753 748 746 746 744 742 741 739 738 738 738 742 745 743 739 739 740 739 736 735 736 736 733 730 727 718 707 699 696 692 689 685 681 679 680 681 679 676 673 671 670 670 672 674 675 675 676 676 674 672 671 671 670 672 674 676 677 678 677
759 758 758 758 759 759 759 761 762 762 762 763 763 762 762 763 765 767 768 767 767 767 767 768 767 763 761 761 757 751 749 748 745 743 742 742 740 739 740 743 744 741 738 739 740 738 735 735 735 735 733 728 722 712 703 699 695 690 686 682 676 673 673 673 672 671 669 668 668 669 670 671 670 670 671 670 668 668 669 668 667 670 672 674 676 677 678
758 757 758 758 757 756 757 760 762 762 762 763 763 762 762 763 765 767 768 767 767 765 766 768 767 761 761 762 758 751 749 749 747 745 745 743 741 741 741 742 742 742 741 741 740 738 736 735 736 735 732 727 719 708 697 690 686 683 680 676 670 667 667 665 664 664 663 663 663 663 664 665 663 663 664 663 663 665 666 665 665 668 671 673 675 676 677
758 758 758 757 756 757 760 762 762 761 762 763 763 761 761 762 764 765 765 766 766 766 765 765 763 760 761 760 755 750 749 749 749 748 747 744 742 742 742 742 742 743 742 741 739 739 738 737 737 736 732 727 719 707 695 688 682 678 673 667 662 660 660 658 656 654 653 654 653 653 654 657 657 658 660 660 661 663 664 663 663 667 669 672 674 674 676
759 759 757 757 758 761 762 762 762 762 762 761 760 759 759 761 762 762 762 761 761 762 763 762 759 757 758 757 753 749 748 747 747 747 745 744 743 742 741 743 745 745 743 741 740 742 743 739 736 734 733 729 721 710 699 691 684 678 672 664 658 655 654 653 650 649 649 649 649 649 651 654 655 657 660 660 660 662 662 661 663 666 668 671 673 673 674
761 761 760 760 762 763 762 761 761 760 758 756 755 757 758 759 759 758 757 755 753 754 757 758 754 752 753 754 753 751 747 745 745 745 742 741 741 740 742 746 746 744 742 740 739 742 744 739 735 736 737 732 723 713 704 696 689 683 677 669 661 656 655 653 651 650 650 650 650 650 651 653 655 657 659 661 662 664 664 663 664 666 668 671 673 673 674
763 763 762 762 762 761 760 760 760 759 756 755 756 757 757 757 757 756 756 756 755 753 753 752 749 746 746 748 749 748 745 743 743 742 739 739 740 741 743 745 744 742 742 741 739 740 740 738 737 741 741 733 725 717 710 703 697 690 683 675 668 663 661 659 657 656 655 654 654 653 654 655 656 658 660 663 665 667 668 666 666 667 669 672 674 674 675
763 762 762 762 762 760 760 761 761 762 765 766 766 767 765 762 760 758 757 756 756 753 750 749 746 743 743 743 743 743 743 743 743 740 736 737 740 740 740 741 742 742 742 742 741 742 743 745 748 749 744 735 728 723 716 710 704 697 689 682 677 673 670 667 664 663 662 661 661 661 660 661 662 663 664 666 668 672 673 672 671 671 672 673 675 678 679
763 762 761 762 761 761 764 767 767 770 776 779 778 778 776 772 768 766 764 763 761 755 750 748 746 742 741 740 739 739 740 740 739 737 735 735 736 737 739 743 744 742 742 744 746 747 751 754 755 751 744 737 732 727 721 716 711 705 698 692 686 681 678 674 671 671 672 671 669 668 668 669 670 671 670 670 674 677 678 676 676 678 677 676 679 683 685
766 764 763 766 768 768 772 778 778 778 782 784 782 780 780 776 772 770 768 767 765 760 754 750 747 743 741 739 738 739 739 737 736 737 737 736 736 739 742 745 744 742 746 751 753 753 758 761 758 751 745 741 736 732 727 723 719 713 708 703 697 692 689 685 681 681 683 682 679 676 677 679 681 680 678 678 681 682 682 682 683 684 681 680 684 688 690
770 768 768 773 778 777 779 786 788 785 783 781 777 774 773 771 769 767 764 762 761 758 755 752 750 747 744 740 739 739 739 737 738 741 740 740 743 745 744 743 744 747 752 757 761 764 767 767 761 754 749 745 740 736 732 728 725 720 716 712 708 705 703 699 695 693 692 690 687 686 687 689 689 687 685 686 687 687 688 690 690 687 685 688 693 696 697
772 771 771 779 784 781 780 785 787 783 778 775 771 769 767 765 763 762 760 758 757 755 753 752 751 751 749 744 742 741 740 739 742 745 744 744 748 748 744 747 756 763 766 769 773 775 774 770 763 758 754 748 743 739 736 733 730 727 724 721 718 715 712 710 707 706 704 701 698 698 699 699 698 695 694 695 695 696 698 700 698 695 695 699 702 703 703
775 776 779 784 787 784 781 780 778 775 773 772 769 766 764 762 761 761 760 757 755 753 753 753 753 754 753 750 748 748 746 744 747 749 747 747 753 756 754 759 769 776 779 780 781 778 774 769 765 761 757 752 747 743 740 737 736 733 731 728 726 723 720 718 716 715 714 712 710 710 710 708 707 706 705 704 705 706 707 708 706 704 705 706 707 708 709
779 781 784 784 784 782 780 777 775 775 775 773 770 768 766 764 763 763 761 759 755 753 752 752 752 754 755 754 754 755 755 753 754 755 753 754 760 766 768 773 778 780 780 780 778 775 772 769 765 761 757 754 751 748 745 742 740 738 735 734 731 729 726 724 722 721 721 720 719 718 718 716 715 714 713 713 713 714 713 713 713 712 712 712 712 713 714
783 786 787 786 785 785 783 780 779 780 779 776 775 773 771 768 767 765 764 761 757 753 752 752 752 754 755 755 756 760 762 760 759 760 762 764 765 767 773 780 785 782 778 776 773 771 769 766 762 761 759 755 753 751 748 746 744 742 739 737 736 734 731 730 728 727 726 725 725 724 723 721 721 721 720 720 720 719 718 718 719 719 719 718 717 717 718
788 790 791 790 790 790 788 786 786 786 784 782 781 779 776 774 772 770 767 763 758 756 756 758 758 759 762 764 764 765 764 762 761 764 769 772 772 772 778 784 784 779 775 774 771 769 767 764 762 762 760 757 755 753 751 749 748 746 744 741 740 738 736 735 734 732 731 731 730 729 727 727 728 727 726 725 724 723 723 725 726 726 725 725 723 723 724
794 795 794 792 791 790 789 788 788 788 786 785 784 782 780 778 777 773 769 766 763 762 763 764 764 766 771 772 770 766 765 766 768 771 775 778 779 781 784 784 780 777 776 776 773 770 768 766 764 763 763 761 759 757 754 752 750 749 747 746 744 743 741 740 739 738 737 735 735 734 734 734 733 732 730 729 728 728 730 732 733 732 731 730 729 729 729
Wind_Speed
21 22 24 25 26 26 28 29 29 30 29 24 21 16 8 5 7 10 14 19 19 11 3 5 5 4 8 9 9 9 8 10 11 10 11 10 8 8 9 10 10 11 10 10 10 9 6 5 4 0 4 7 8 9 11 11 8 4 2 1 1 2 5 8 9 7 7 8 11 15 18 18 17 16 15 15 15 13 11 8 6 7 10 9 7 8 4
20 21 23 24 24 25 26 27 27 28 27 22 19 12 5 5 7 7 10 15 14 7 4 6 6 6 10 11 9 8 7 8 11 11 10 7 7 8 8 9 10 10 10 10 10 8 6 3 1 2 1 5 7 9 10 10 8 5 4 3 1 4 8 10 9 8 8 8 9 12 17 16 12 13 17 18 18 18 14 11 8 7 10 11 8 7 4
20 21 22 23 24 24 25 26 25 25 25 21 15 9 6 6 4 3 9 11 8 5 5 6 6 7 10 11 10 9 7 7 9 11 8 5 7 7 7 12 13 10 10 11 11 9 7 4 1 2 1 4 5 8 9 9 8 8 9 8 4 4 6 10 11 11 11 10 9 8 11 13 11 12 19 21 22 22 15 10 10 9 9 11 10 6 3
20 20 21 22 23 23 24 25 24 23 23 20 13 9 7 6 4 6 8 7 5 4 4 5 6 7 9 9 9 10 9 7 9 10 6 6 9 7 5 12 13 9 10 9 11 9 9 6 3 2 1 2 4 6 6 7 10 11 12 9 5 4 4 5 5 5 4 2 1 3 2 11 16 17 18 19 20 22 16 11 11 9 8 10 11 8 5
20 20 20 21 22 23 23 23 22 21 21 17 12 8 6 5 5 7 7 5 5 5 5 6 7 8 9 7 7 10 11 9 9 9 6 7 11 6 1 9 12 10 12 10 6 6 7 7 4 2 2 3 2 3 3 5 10 12 10 9 5 4 4 3 3 2 2 3 5 6 4 6 12 16 18 17 17 20 19 15 12 9 9 10 10 12 12
19 20 20 20 21 22 23 23 22 20 19 16 10 7 6 5 5 6 5 5 6 7 8 9 10 10 10 6 6 9 11 10 9 8 6 6 9 6 3 8 11 11 12 10 7 5 5 5 2 1 4 6 4 0 3 4 9 9 7 8 6 4 3 2 2 3 2 2 3 3 1 1 3 7 12 13 15 18 18 16 14 12 10 8 8 12 15
19 20 19 19 19 20 22 22 21 19 17 13 9 6 5 4 4 5 5 6 8 9 10 11 11 10 8 4 4 8 10 10 9 7 8 7 6 6 7 10 12 11 10 8 7 6 4 2 3 5 6 7 5 2 3 3 7 8 6 6 6 4 0 2 3 4 2 2 2 1 1 1 3 5 7 8 11 14 14 14 15 15 13 10 9 11 12
19 19 19 18 18 18 19 21 20 19 17 12 8 5 4 4 4 4 6 7 8 9 9 10 10 8 5 3 4 7 9 9 9 8 9 7 6 7 10 12 13 12 10 8 6 7 8 7 8 10 9 5 4 3 1 3 7 8 6 5 5 4 1 2 5 5 4 4 3 2 3 4 6 8 9 9 10 11 12 12 13 13 12 11 12 12 11
19 19 19 18 18 17 17 18 19 18 15 11 7 5 5 6 5 5 5 6 7 8 8 8 8 5 3 4 6 7 8 9 10 9 6 3 2 5 10 12 12 11 9 7 7 8 10 11 11 11 10 7 5 5 5 7 8 7 5 5 5 5 2 1 3 5 5 5 4 5 4 6 10 12 12 13 12 12 12 11 11 12 12 13 14 14 11
21 21 21 21 20 18 16 16 17 16 14 10 6 6 7 7 5 3 4 5 7 8 7 8 7 5 5 6 8 8 8 8 10 7 2 1 3 3 8 10 8 8 8 7 8 10 12 13 13 11 11 11 10 9 9 10 8 6 5 5 4 4 4 2 2 5 5 5 3 3 4 7 11 12 13 16 15 13 13 13 13 14 13 12 13 11 9
22 22 23 23 22 20 17 15 15 15 13 10 8 9 10 7 4 2 3 5 7 7 7 7 6 7 9 10 10 10 9 9 9 6 4 5 7 8 8 8 7 6 6 7 9 11 13 14 13 12 12 14 13 11 11 12 10 7 6 5 4 4 4 3 2 4 4 3 0 3 6 8 6 2 5 11 13 14 15 14 14 14 13 11 11 9 8
23 23 24 24 22 21 19 17 15 15 16 13 11 12 11 6 4 3 2 5 8 7 7 7 8 10 12 12 11 10 11 10 9 8 9 9 10 9 9 8 7 6 6 9 11 12 13 14 14 13 13 14 14 14 14 14 12 9 7 7 6 4 4 4 3 4 5 3 2 6 8 5 2 5 3 3 5 8 10 10 10 11 11 11 11 10 9
25 25 25 25 24 22 20 19 17 17 18 16 14 16 13 7 5 4 3 5 7 7 8 10 11 12 12 11 11 11 12 11 11 10 11 10 9 9 7 7 8 7 8 11 12 12 11 11 10 10 11 11 11 13 15 16 15 13 10 9 8 6 5 5 4 5 5 4 6 8 3 2 2 3 4 4 5 5 6 10 11 9 5 5 7 8 8
27 27 27 28 26 24 22 21 20 19 20 19 18 18 16 10 8 4 2 4 7 8 9 10 11 10 10 10 12 12 11 11 11 9 9 8 8 7 6 7 8 8 8 10 9 8 7 6 5 6 7 7 8 9 12 14 15 15 13 11 9 8 5 4 5 6 6 6 7 7 3 4 5 4 4 4 4 3 3 8 7 5 3 0 4 5 6
29 30 31 29 26 25 23 23 23 21 21 22 20 19 18 16 13 8 3 4 7 9 8 8 9 10 11 11 11 11 9 9 9 8 8 7 5 5 5 7 9 9 8 8 7 6 5 5 4 4 5 6 6 5 6 8 10 13 14 12 10 9 7 5 5 6 6 6 7 7 7 8 6 6 7 5 4 4 2 4 4 6 5 2 2 4 5
32 33 31 29 26 26 25 24 23 23 23 23 21 21 21 19 17 13 6 3 5 6 5 6 9 11 11 11 11 10 8 7 7 7 6 4 4 5 5 5 8 9 8 6 5 5 5 5 4 4 3 3 3 2 3 6 7 8 11 13 12 11 8 6 6 6 6 7 8 8 7 4 2 6 8 6 3 2 1 4 5 4 5 3 3 4 6
33 31 30 29 27 26 25 24 23 23 23 23 23 23 23 19 19 17 9 4 5 7 8 10 11 10 8 8 9 8 6 6 6 6 5 5 7 8 6 5 7 7 5 5 4 3 5 5 4 4 3 1 3 4 4 5 6 7 8 11 13 11 8 6 8 8 7 8 8 7 6 2 3 5 6 6 3 0 3 6 4 4 4 3 3 5 6
31 30 30 30 28 26 25 25 24 23 23 22 22 24 26 23 21 19 10 4 6 7 8 9 10 9 7 7 8 7 6 6 6 5 6 7 6 6 7 7 6 2 1 3 4 3 5 5 3 3 2 1 3 5 3 3 5 4 4 7 9 9 7 7 8 8 8 9 8 6 5 2 2 4 3 3 1 3 5 4 2 4 1 2 2 4 5
30 30 31 30 29 28 27 25 24 23 23 21 20 22 25 23 23 22 13 5 6 7 6 8 9 10 10 9 8 7 7 7 7 5 6 5 4 7 9 7 4 2 1 3 3 3 4 3 1 2 3 1 1 3 3 2 3 1 2 5 7 8 8 8 8 8 8 8 8 8 6 1 1 5 6 3 4 4 2 1 2 2 2 1 2 4 3
30 31 31 30 30 29 27 25 24 23 22 20 19 20 22 20 22 26 19 8 5 8 10 13 15 15 13 11 10 9 8 8 7 5 6 6 5 9 8 2 1 2 2 2 2 2 3 3 1 1 4 2 1 3 3 2 3 3 5 5 5 5 6 8 9 8 7 8 8 8 6 3 8 5 4 4 4 4 4 2 1 0 2 2 1 2 3
31 31 31 31 30 28 27 25 24 23 22 20 18 19 20 17 20 28 27 17 7 5 7 9 12 14 14 13 13 14 12 12 10 8 7 7 5 5 5 3 3 3 2 2 3 1 1 3 2 1 3 2 2 3 4 4 3 3 5 5 4 4 4 6 6 4 5 9 8 3 2 4 7 6 3 3 6 8 8 7 5 1 1 2 2 2 3
32 31 31 31 30 28 27 26 25 24 23 22 18 17 17 14 17 25 29 23 13 9 9 9 11 15 19 21 21 21 19 18 17 13 10 8 6 6 6 6 6 4 2 3 4 2 2 3 3 3 4 3 3 4 5 5 4 3 3 5 4 2 1 2 4 3 5 8 6 7 10 9 7 5 6 9 12 11 11 10 7 3 2 2 2 2 3
32 32 32 31 30 29 28 27 25 24 24 23 19 17 17 15 15 23 26 21 13 12 14 15 15 17 20 21 21 20 19 18 17 17 13 10 7 6 7 7 6 4 3 4 4 4 4 4 3 4 4 4 4 5 6 6 5 3 4 5 4 1 1 2 4 5 7 9 10 10 12 13 12 8 7 9 11 12 12 11 8 6 4 4 3 2 2
32 32 32 31 30 29 28 26 25 25 25 23 20 18 17 14 13 20 20 13 7 7 9 10 10 10 11 12 11 12 14 13 13 14 14 12 9 6 5 5 5 4 4 4 4 3 4 4 3 4 4 4 4 5 6 5 4 4 5 6 6 4 2 3 5 6 6 7 8 10 12 14 13 11 10 10 10 10 11 10 9 8 7 6 4 2 1
33 33 32 31 30 29 29 27 25 26 26 23 20 18 14 10 13 19 18 10 4 4 5 6 7 9 10 11 10 9 10 10 11 12 14 16 14 10 7 5 6 6 5 4 3 4 4 4 4 4 5 5 4 5 6 5 4 4 5 6 5 2 1 3 7 8 8 9 10 13 15 16 16 14 11 10 8 8 10 11 10 9 8 7 5 3 1
33 32 32 32 30 29 29 29 27 27 25 22 19 16 12 9 12 19 18 8 2 3 5 5 6 7 7 8 11 12 11 12 13 14 15 18 19 17 14 10 9 9 7 5 5 5 4 5 5 6 6 5 4 5 6 6 6 6 7 8 7 5 5 6 8 9 10 11 13 14 14 16 17 14 9 6 6 8 11 13 12 11 9 7 5 3 2
31 32 32 31 30 29 30 30 28 26 24 19 15 13 11 10 12 17 17 11 4 2 5 5 4 5 8 12 15 15 13 14 15 14 15 17 18 19 17 13 10 9 7 6 6 5 5 6 7 7 7 6 5 6 7 8 8 9 9 9 8 8 8 8 8 9 9 10 10 9 9 11 11 9 7 8 9 9 12 14 13 12 10 7 5 2 2
30 31 31 31 31 31 31 30 27 24 20 15 10 8 7 8 11 14 16 16 10 3 4 5 6 8 10 11 10 8 8 11 13 13 13 14 16 17 15 12 10 8 7 7 6 5 6 7 7 7 7 6 6 8 8 8 8 9 9 9 9 9 9 9 9 10 11 11 11 10 9 11 12 11 12 12 10 10 12 13 13 14 12 8 5 2 2
30 30 30 30 32 32 30 27 24 19 14 8 4 3 4 6 9 11 13 16 14 7 4 6 7 7 7 6 6 6 8 10 12 13 12 12 13 14 13 11 9 8 7 7 7 6 7 7 7 7 6 4 4 5 6 7 9 10 10 10 10 10 11 12 13 14 14 14 14 12 12 15 16 15 14 12 10 11 13 14 14 14 13 9 5 2 1
31 30 30 31 33 31 27 23 19 13 6 2 3 2 1 2 4 7 10 14 16 11 4 4 4 4 6 7 7 8 7 8 10 12 12 11 11 11 12 11 9 8 7 7 7 7 7 6 6 8 8 6 5 4 5 7 9 10 11 11 11 12 13 13 13 14 14 13 12 13 15 17 17 15 15 13 12 12 14 15 15 14 14 11 5 2 0
32 32 33 33 31 26 21 16 11 4 4 5 4 1 1 2 1 2 5 12 15 10 3 3 5 5 6 5 6 6 6 6 8 10 12 12 11 11 12 11 9 8 8 7 7 7 7 6 7 8 9 8 6 5 6 8 9 11 13 12 9 10 11 11 12 13 13 13 13 15 17 17 15 15 15 15 14 13 14 15 16 15 15 14 8 3 2
34 34 34 32 25 17 11 7 2 4 7 6 3 1 2 2 3 2 5 11 13 8 2 2 4 4 3 2 3 5 6 7 6 7 8 9 9 9 10 9 8 8 9 7 6 6 6 8 9 9 8 8 7 6 8 10 11 14 16 12 8 9 11 12 12 13 13 14 14 16 18 17 15 16 16 15 14 14 14 16 16 14 13 12 8 5 4
35 34 31 25 16 9 7 7 6 7 7 6 3 1 1 1 1 3 9 12 9 4 2 2 3 3 3 4 4 2 3 4 5 5 5 6 6 6 7 8 7 7 8 7 5 4 5 6 7 8 8 7 6 6 9 12 15 19 18 15 13 13 14 14 15 15 16 16 16 17 18 17 15 15 15 14 14 15 15 15 14 12 11 10 8 5 5
33 30 25 15 7 7 9 10 8 7 5 4 1 2 3 4 2 7 12 11 5 1 2 2 3 3 3 5 3 2 2 3 3 2 2 4 6 5 5 6 5 5 6 7 6 5 6 6 6 7 6 4 4 7 10 14 18 18 17 16 16 14 13 14 16 17 18 18 18 19 19 18 16 14 14 15 15 14 13 13 13 12 11 9 7 5 5
28 23 15 6 5 8 10 11 8 5 4 4 2 3 4 3 2 10 13 8 2 1 2 2 3 2 3 5 3 2 3 4 4 3 2 1 4 4 3 4 4 4 5 5 5 7 6 4 4 5 4 3 5 7 10 14 18 17 16 17 16 13 12 13 15 16 18 18 19 19 18 18 17 15 14 15 15 13 13 13 12 12 11 8 5 4 3
19 13 6 4 7 6 6 7 6 4 3 4 4 3 4 5 6 11 11 4 1 1 1 1 2 2 2 3 3 2 3 4 3 2 2 1 1 1 1 2 3 3 3 3 5 6 4 1 2 4 4 3 6 8 10 16 21 21 19 19 18 15 13 13 14 17 18 17 17 17 15 16 17 15 14 15 14 13 14 14 12 11 11 9 5 3 2
9 6 4 6 5 2 2 4 5 5 4 3 5 9 11 9 7 8 7 2 0 2 1 2 3 4 3 3 3 2 2 2 2 2 2 2 1 0 1 1 2 1 2 3 4 4 2 2 3 5 4 4 8 13 15 17 20 20 19 19 19 17 14 13 15 18 16 15 15 15 14 14 15 14 14 15 14 14 14 13 11 10 10 9 6 5 4
8 5 3 2 1 2 4 4 4 5 2 3 6 6 6 5 3 3 3 2 2 2 2 2 4 3 2 3 3 2 1 2 3 2 2 2 2 0 1 1 1 1 2 2 1 2 3 3 3 3 5 7 11 15 15 12 12 15 16 17 18 16 13 13 16 16 14 13 14 14 14 15 16 15 13 13 12 12 12 11 10 10 9 8 6 6 6
9 3 1 2 3 4 5 5 4 2 4 5 5 2 1 1 1 0 1 1 2 2 2 3 3 3 3 4 4 2 2 2 3 2 1 2 2 1 0 0 1 2 3 2 2 3 3 3 2 2 5 8 12 17 18 14 10 8 10 12 13 13 14 14 13 11 10 9 9 11 13 14 13 13 11 10 9 9 9 9 9 9 9 7 6 7 8
7 2 1 3 4 3 5 6 2 3 4 3 3 1 0 0 1 1 1 1 2 2 2 2 3 3 5 5 4 1 3 2 2 3 2 2 2 1 1 2 2 2 2 2 2 3 2 3 2 3 6 10 14 16 17 16 16 16 15 14 10 5 6 7 4 4 5 5 5 8 10 9 10 10 8 7 7 7 7 7 7 8 8 8 8 8 9
6 4 3 3 4 6 6 4 0 2 2 1 1 1 1 2 1 1 2 3 4 2 1 2 3 2 3 5 3 2 2 2 2 2 1 1 1 1 2 2 2 1 2 2 2 2 2 3 3 4 7 11 14 15 16 17 17 17 17 17 16 14 10 8 5 1 2 3 3 5 6 7 8 8 6 6 5 5 5 5 6 8 8 8 7 9 12
5 3 3 4 5 6 4 2 0 0 2 3 3 3 3 3 2 2 3 4 4 3 1 1 3 5 2 3 4 3 2 1 2 2 1 2 2 1 2 2 1 2 4 3 3 3 3 4 5 6 9 12 14 15 16 16 17 18 19 19 19 19 20 18 14 9 7 6 5 5 6 7 7 5 5 6 5 3 1 1 4 6 9 9 7 7 11
7 5 3 2 3 3 2 2 2 2 3 4 4 4 5 5 4 4 4 3 3 4 3 1 3 3 1 1 2 2 2 1 2 2 1 2 1 1 2 2 2 3 3 3 3 4 5 5 6 8 9 11 12 14 16 16 16 18 20 21 20 20 21 21 20 18 17 16 15 14 13 11 11 9 9 11 12 10 7 7 10 10 10 13 14 12 13
7 4 2 1 1 2 3 3 3 4 4 5 5 5 6 7 6 5 5 4 5 6 7 6 5 5 4 3 2 1 0 1 2 1 2 2 2 2 3 3 3 2 1 2 4 5 4 4 6 8 9 10 11 13 15 15 15 16 18 20 21 21 21 21 21 20 19 18 17 17 16 15 14 13 13 17 17 12 8 12 18 19 18 20 20 18 18
4 4 3 3 3 4 3 3 3 4 5 5 4 4 5 6 6 5 4 4 4 6 7 8 7 7 7 4 2 2 3 2 1 2 3 3 3 5 4 2 2 2 2 4 5 5 6 8 9 10 12 13 13 13 13 13 13 13 15 18 21 22 22 23 23 20 17 16 16 16 17 16 13 12 14 18 18 16 15 17 19 21 24 26 24 21 21
3 3 4 4 5 4 4 4 4 4 4 5 5 5 5 5 5 4 4 4 4 5 7 7 7 7 7 5 3 3 3 3 3 3 3 3 5 5 3 2 3 4 5 6 6 6 8 10 10 11 14 16 14 12 12 12 12 13 14 16 18 19 19 21 21 20 17 17 18 18 17 15 14 14 18 21 24 25 25 24 25 28 29 27 23 21 23
3 3 3 3 4 5 5 5 5 4 5 6 7 7 7 5 4 4 4 4 5 5 6 6 5 4 5 5 4 4 4 4 5 5 4 3 4 4 3 4 6 5 5 7 7 6 6 8 8 9 12 14 12 11 11 11 12 14 15 15 16 17 17 17 18 17 17 18 18 17 16 16 17 18 19 20 24 27 27 25 27 31 31 26 23 23 24
3 3 3 3 4 5 6 6 6 6 6 7 7 7 7 6 6 6 6 5 5 5 6 5 4 3 4 4 5 5 5 5 5 5 4 3 3 3 3 5 6 4 4 5 6 5 6 7 7 8 10 11 10 11 11 10 12 15 16 15 16 17 17 16 16 16 17 16 15 13 13 15 18 18 17 17 19 23 25 25 26 27 28 27 26 25 24
4 3 3 3 3 5 6 6 6 7 8 8 8 8 8 8 8 8 7 6 6 5 5 4 3 3 3 3 4 5 6 5 5 5 5 5 5 4 4 5 6 6 4 4 4 5 5 6 7 8 9 10 10 10 10 11 12 13 14 14 15 15 15 15 17 18 18 17 14 13 14 15 16 17 17 15 15 19 24 25 24 22 22 23 23 23 22
5 4 4 5 5 6 6 7 8 8 8 8 8 8 8 8 9 9 8 8 6 5 4 3 4 4 4 3 4 5 6 5 4 5 6 7 6 5 5 6 6 5 4 4 4 4 5 5 6 7 9 9 10 10 10 11 11 11 12 13 15 16 16 17 18 18 18 19 18 18 18 17 16 16 15 14 15 19 23 24 22 20 21 21 22 21 21
4 4 5 6 6 6 6 6 8 9 8 8 8 8 8 8 8 9 10 9 6 5 6 5 4 4 5 5 5 5 4 4 4 6 7 6 4 4 6 6 4 4 4 4 4 4 5 6 6 7 8 9 10 10 10 10 10 11 12 14 16 16 17 18 18 18 18 20 20 20 19 18 17 16 15 16 19 21 21 20 20 19 20 20 21 21 20
3 4 5 6 6 6 6 6 6 7 8 8 7 8 8 8 8 10 11 9 7 7 7 6 5 5 6 6 5 4 4 4 6 7 7 5 4 4 4 4 4 4 5 5 5 5 6 7 7 7 8 9 10 10 10 10 10 11 13 14 15 16 16 17 17 17 18 18 19 19 18 17 17 17 18 19 19 16 13 13 16 18 18 18 19 20 20
Wind_Direction
353 353 354 354 354 354 355 356 356 358 0 1 351 339 331 343 329 326 343 343 333 326 347 6 352 2 357 337 327 334 330 327 331 339 341 331 328 320 289 278 281 273 275 281 269 261 268 281 287 15 75 52 30 10 357 346 334 312 267 144 77 265 226 218 219 205 205 206 186 195 207 201 201 208 206 205 208 208 214 220 212 212 220 220 228 243 224
352 352 352 352 353 354 355 356 356 359 3 360 348 342 343 329 310 315 348 348 337 341 14 358 349 354 344 335 338 345 345 344 341 342 350 351 341 324 308 310 307 293 285 272 265 267 251 233 298 294 67 60 30 10 4 356 1 20 1 350 326 225 209 207 215 201 188 190 186 196 206 207 211 210 205 210 211 208 212 221 226 231 224 215 218 233 210
350 350 350 350 352 354 354 355 356 357 2 3 353 341 337 328 313 334 353 349 346 11 22 351 342 349 341 335 340 343 347 0 351 341 348 12 351 317 311 326 317 301 294 267 248 258 258 250 302 264 133 72 40 12 6 4 14 19 359 338 304 253 215 207 212 208 200 194 189 197 204 203 210 212 207 209 209 208 210 215 221 225 223 219 224 228 143
348 346 347 347 349 351 351 353 354 354 360 5 354 335 338 341 341 351 347 341 346 8 7 346 340 344 338 334 339 337 337 354 358 345 349 22 356 317 307 338 329 322 327 286 238 239 257 265 276 238 227 65 49 18 5 15 14 356 345 341 305 249 218 222 239 234 224 201 95 4 290 203 201 207 208 208 209 209 209 215 219 216 220 226 229 231 200
346 344 343 344 346 348 349 350 353 354 358 3 351 331 341 349 344 352 347 331 337 345 347 348 343 337 334 330 331 331 334 344 352 348 352 14 359 331 346 13 355 344 346 324 267 254 250 241 244 255 328 356 27 32 19 22 7 344 342 356 329 239 195 217 286 331 350 358 14 7 342 212 198 201 204 207 209 209 210 218 219 209 220 229 218 221 228
343 341 340 341 342 344 346 347 350 352 355 359 353 342 356 352 338 354 351 322 324 330 332 334 327 323 326 323 320 328 336 341 347 348 335 348 10 5 359 12 359 344 342 333 317 309 260 227 232 296 350 348 330 117 102 48 10 348 350 14 352 270 202 183 269 293 313 324 342 359 351 232 201 203 201 201 206 211 217 226 226 221 230 240 220 217 227
341 339 338 338 338 340 342 343 345 349 351 350 343 343 359 342 323 342 341 316 310 314 316 317 314 318 324 320 324 331 332 336 345 343 319 318 14 18 343 348 351 342 335 322 317 334 322 308 16 358 345 344 327 277 161 87 23 356 353 16 358 307 339 52 312 285 246 236 282 318 296 244 232 226 215 208 211 217 226 232 234 236 242 248 247 240 236
339 338 336 336 334 334 337 338 339 343 345 340 332 337 349 337 325 330 322 311 307 308 311 310 308 315 317 311 339 335 326 336 342 330 319 324 360 2 341 341 341 331 327 317 304 332 344 335 340 340 331 333 337 312 285 24 5 350 349 7 350 325 32 28 321 279 219 204 208 221 256 268 255 242 231 225 222 221 226 228 230 239 244 246 253 258 252
338 337 334 332 331 329 331 331 331 337 339 331 322 329 327 317 315 315 308 308 312 312 316 315 308 311 316 320 339 333 323 335 333 323 335 1 4 343 334 332 329 318 319 320 308 320 330 316 308 315 311 303 314 313 310 329 336 336 345 348 331 320 336 1 295 251 206 178 188 218 253 271 260 246 233 227 223 220 222 221 222 229 234 239 246 250 250
336 336 334 331 328 325 324 323 323 328 329 316 302 314 321 312 304 307 300 297 305 308 310 311 305 309 325 322 319 314 313 325 326 324 357 157 228 296 317 314 312 307 305 316 319 314 309 300 296 296 288 283 288 285 284 295 301 304 316 320 313 308 311 309 261 243 197 153 176 249 260 254 250 241 229 223 220 221 224 222 222 224 225 232 239 245 252
333 333 331 330 326 322 318 314 312 314 313 303 285 292 308 309 296 298 289 285 299 308 306 305 305 307 313 312 308 305 305 313 322 322 310 297 303 313 310 298 291 293 303 316 314 303 293 287 282 275 270 271 272 271 272 274 272 269 278 286 285 286 283 282 281 254 218 164 164 265 237 229 231 213 212 217 217 221 224 223 221 219 221 233 245 253 259
328 328 327 325 321 316 313 307 303 299 298 294 276 271 283 288 276 275 266 281 300 308 297 293 295 297 301 302 301 303 305 309 316 310 299 303 311 310 305 299 288 293 315 313 304 297 291 284 274 260 253 254 256 258 260 259 255 248 243 250 263 268 255 254 260 252 250 264 248 227 223 214 125 77 84 186 209 218 225 234 239 234 233 242 250 253 257
325 324 324 322 318 311 306 302 297 290 289 288 270 260 265 263 253 263 256 270 290 298 297 297 294 291 294 300 303 303 305 307 305 298 293 296 302 302 301 299 297 307 315 306 299 299 294 284 273 258 243 238 242 246 246 245 244 240 231 229 240 249 251 252 245 241 252 256 227 217 209 61 100 131 115 141 165 177 213 234 235 234 240 255 260 263 271
323 321 321 320 315 308 301 297 293 286 284 282 269 261 262 248 228 243 259 258 278 289 294 295 294 293 297 303 305 304 304 305 303 298 297 297 296 298 297 297 302 307 306 300 299 298 291 283 274 252 225 217 226 232 231 231 233 231 225 219 224 233 245 251 239 233 237 240 235 235 275 299 239 186 122 122 144 134 233 240 212 162 114 154 263 275 285
321 320 319 315 309 305 300 296 291 286 283 281 272 263 260 245 230 232 237 240 273 288 287 283 293 304 306 304 304 305 304 306 305 302 300 297 291 291 294 300 302 299 297 299 298 292 289 291 282 249 204 203 221 220 207 211 216 219 220 216 212 218 232 237 233 230 231 240 244 240 249 259 233 168 127 106 92 71 6 274 200 133 100 65 270 280 291
320 318 315 309 305 304 301 296 292 286 283 282 275 264 257 245 229 225 229 233 262 277 280 286 295 300 298 296 297 297 298 304 308 307 303 301 304 304 302 301 296 292 293 291 287 293 292 281 273 263 236 231 254 233 198 206 197 189 203 209 206 210 222 231 238 237 226 231 239 233 234 247 134 137 136 123 109 91 117 246 223 134 82 28 303 294 302
317 314 310 309 308 307 303 299 295 289 283 280 274 263 257 245 224 216 221 224 236 257 276 286 289 289 286 289 294 294 299 306 302 299 303 311 313 310 311 311 296 285 281 272 258 268 279 275 276 271 264 325 306 274 240 227 201 165 177 197 199 202 210 217 228 231 224 230 239 234 238 256 97 131 131 111 93 125 218 228 210 111 71 354 309 305 310
313 311 310 311 311 309 307 304 300 295 287 282 275 266 261 250 224 210 213 228 236 252 271 271 271 277 285 295 300 298 301 304 297 294 297 300 311 319 320 319 308 283 230 271 263 256 272 284 301 288 290 37 292 279 285 249 221 178 166 190 193 197 202 206 217 223 223 229 236 238 247 253 181 203 183 93 52 257 240 231 137 117 170 283 296 296 307
312 312 312 313 313 312 311 308 303 300 296 290 282 271 263 249 219 204 204 222 235 243 265 272 270 275 281 284 287 284 283 284 286 294 292 292 334 333 313 301 297 288 241 265 264 256 269 282 353 298 286 308 274 293 323 292 252 205 186 205 200 198 201 206 217 222 220 221 231 242 240 163 43 266 258 250 251 254 250 108 122 160 233 290 277 278 301
313 313 313 313 314 313 312 309 306 303 301 298 290 280 271 252 221 210 208 209 235 252 261 266 266 269 273 273 272 276 280 276 272 276 280 288 335 330 306 267 171 292 275 257 256 243 262 277 338 291 276 287 328 301 282 260 262 250 233 230 215 198 204 210 210 214 223 223 222 227 217 82 34 339 259 212 247 305 348 340 244 224 341 324 283 297 322
314 314 314 313 314 314 312 311 309 306 304 302 295 287 281 260 226 216 213 210 220 259 260 257 257 262 269 271 270 272 273 271 270 276 280 283 300 305 297 319 342 316 314 311 291 276 287 297 311 298 280 289 299 288 285 279 265 239 235 247 238 209 218 226 213 211 228 217 205 216 306 4 11 350 309 312 327 336 337 319 300 332 358 299 289 339 335
314 314 314 314 315 314 312 312 311 308 307 307 300 290 282 263 229 219 215 211 214 237 255 265 270 270 271 271 270 267 265 264 266 265 268 274 274 264 272 294 300 291 310 320 296 285 305 306 305 299 288 279 270 280 287 282 260 209 206 231 221 159 115 287 274 291 278 251 259 322 323 311 321 343 344 335 333 336 335 324 312 310 324 316 306 323 340
314 314 314 314 314 314 312 312 313 311 310 312 306 294 284 269 233 215 211 210 218 239 252 263 273 276 273 270 265 258 253 255 255 249 245 251 262 262 261 269 275 269 270 285 295 313 323 318 315 309 296 292 291 286 277 268 262 252 234 234 231 187 65 306 282 290 294 279 275 286 289 286 294 319 335 328 326 330 332 331 329 331 332 321 304 312 349
314 313 314 314 314 314 314 314 315 314 313 313 309 301 292 276 232 205 201 206 226 252 254 248 247 258 275 285 279 254 237 235 239 238 231 228 237 252 251 245 249 255 255 257 270 299 312 309 303 293 287 291 292 281 273 269 269 269 258 248 248 241 220 235 261 276 283 273 267 275 282 287 297 310 314 311 316 326 328 327 330 332 326 316 307 312 5
314 314 314 314 315 315 316 317 318 317 315 313 311 306 293 264 218 199 195 195 208 236 254 253 239 245 271 292 287 256 230 228 234 233 224 219 222 235 248 249 249 255 264 274 265 262 277 285 283 283 286 287 279 270 273 276 280 288 278 261 255 258 239 246 255 259 259 261 272 282 287 289 288 288 290 300 316 326 321 314 313 313 311 307 300 295 338
315 315 314 315 317 318 318 319 320 319 316 313 310 301 286 259 219 202 198 196 178 203 239 270 270 256 264 275 265 253 250 251 245 237 229 223 223 232 245 257 261 257 262 272 265 259 264 267 269 273 273 268 264 267 274 278 281 282 276 265 260 266 271 268 266 264 263 263 266 271 276 276 270 265 271 305 333 326 313 309 308 306 301 299 297 302 16
315 315 315 316 318 319 320 320 320 318 316 314 307 292 276 254 226 210 202 196 180 207 242 256 276 284 279 275 272 267 260 252 245 239 236 232 229 233 240 248 255 257 257 258 253 249 250 251 256 260 258 261 269 269 269 274 275 273 268 262 257 255 256 259 261 261 259 258 257 260 267 269 266 270 298 323 331 321 308 306 308 305 297 292 290 294 53
315 315 316 318 319 320 321 320 319 319 318 313 299 285 269 242 228 222 214 207 205 232 278 273 290 305 296 284 278 268 249 239 236 238 239 236 232 234 236 238 245 251 254 256 255 250 249 253 257 257 259 270 275 265 262 265 265 263 260 255 249 249 252 256 261 262 262 266 273 278 278 277 280 289 298 305 312 307 296 295 299 298 294 288 277 267 78
317 317 319 320 321 321 321 320 319 318 316 306 282 276 276 249 234 231 225 218 217 228 273 282 283 297 303 298 286 269 254 241 235 236 239 235 230 229 229 232 237 240 245 252 255 255 256 260 265 266 268 280 282 273 269 265 259 258 260 260 257 254 253 257 264 268 269 272 279 281 276 273 276 282 287 292 295 291 286 285 287 287 287 282 266 256 71
320 321 322 324 324 324 323 320 316 313 304 229 162 156 283 259 229 227 226 222 219 218 237 276 275 297 311 300 284 273 259 241 232 231 232 233 232 227 224 225 228 231 236 242 246 253 260 260 261 263 259 251 258 276 271 263 265 267 268 267 264 259 258 259 260 261 264 268 272 274 272 272 275 279 279 277 276 277 277 278 280 280 278 272 255 223 170
323 324 326 329 329 327 326 320 306 275 175 161 165 179 39 69 100 204 214 213 213 213 223 264 268 293 304 276 259 272 275 256 238 230 228 233 240 234 225 222 223 222 226 233 238 245 254 255 256 263 257 239 234 254 263 264 271 271 265 259 248 243 248 251 248 246 249 255 261 267 269 269 271 271 267 265 267 270 268 267 269 269 266 261 244 192 145
325 326 330 333 333 335 344 349 354 147 156 165 167 110 73 84 77 108 166 186 198 207 222 269 272 290 303 285 279 289 284 269 250 236 228 229 234 231 222 219 222 221 223 233 240 238 245 250 252 260 262 245 234 248 258 256 257 258 257 254 244 238 242 244 245 244 242 242 250 259 263 261 259 259 261 265 266 264 262 264 264 258 253 251 237 187 139
327 330 334 337 342 4 36 49 75 113 145 172 190 236 265 277 357 145 160 166 177 191 202 252 277 281 294 316 323 303 274 272 253 232 220 214 214 220 216 214 221 224 219 223 234 240 248 253 253 258 262 251 243 257 259 251 251 256 262 267 266 263 259 254 253 255 253 247 244 247 252 256 255 256 261 267 263 256 256 260 257 244 235 238 232 195 146
331 335 338 342 8 63 69 67 73 86 103 118 107 338 314 298 249 169 156 151 143 138 177 233 276 279 288 302 311 89 45 317 281 249 226 198 195 205 209 204 210 220 213 214 229 247 253 258 264 267 264 250 242 255 258 256 257 262 269 271 268 266 264 261 259 260 259 254 248 244 246 251 255 257 261 265 262 255 248 244 237 227 222 227 230 207 158
338 341 341 358 87 91 76 66 60 65 84 82 44 347 349 349 186 169 159 147 131 182 189 229 266 283 302 301 310 48 23 326 298 305 328 212 195 206 204 185 197 214 208 205 228 246 250 255 264 264 259 244 239 244 254 266 272 275 276 274 272 270 266 264 264 266 263 256 249 244 242 243 245 247 249 251 251 245 236 230 223 217 217 220 217 209 177
344 345 355 81 103 96 71 52 38 37 61 42 12 27 77 84 135 167 169 148 65 200 225 265 248 249 288 296 306 359 355 322 305 308 309 283 232 221 186 181 209 220 206 205 232 245 244 212 242 259 256 242 247 255 268 278 281 282 279 277 276 273 265 260 265 271 270 259 246 240 237 237 239 238 235 235 233 228 223 220 214 211 214 215 205 191 179
357 9 57 98 111 110 81 65 41 20 26 49 73 97 106 106 125 163 178 196 257 204 228 282 260 257 277 281 289 325 337 323 331 334 305 306 325 333 186 216 238 247 234 231 247 269 270 212 228 256 260 251 264 276 279 275 272 273 275 275 275 272 265 259 262 264 261 250 241 237 234 235 233 226 220 218 215 209 207 206 205 206 211 211 199 175 157
39 60 100 133 117 36 44 39 11 360 18 149 143 123 117 120 133 163 189 225 228 199 200 239 251 256 254 247 263 297 314 311 333 345 327 320 328 313 201 222 266 309 281 261 296 341 310 260 244 266 273 279 294 306 313 301 273 262 262 263 265 265 260 261 263 256 240 230 229 223 219 223 221 212 204 201 196 197 201 198 196 202 207 204 189 162 150
37 53 211 311 10 32 18 352 347 49 122 164 188 195 144 138 141 199 197 216 237 229 220 238 248 230 217 240 267 270 225 261 323 337 329 336 342 343 3 3 347 332 304 298 14 26 335 295 291 294 303 316 326 333 342 349 346 324 297 280 270 259 253 259 261 246 228 227 222 206 202 208 205 196 192 188 182 189 200 197 193 198 198 189 173 161 157
21 355 331 18 25 9 340 338 356 132 153 184 214 242 333 29 327 318 311 293 282 247 210 236 253 217 210 239 285 279 193 215 315 328 331 355 341 312 339 355 342 333 319 315 7 37 351 309 317 335 340 343 342 339 343 354 5 3 353 343 337 303 258 261 266 226 224 241 224 193 187 188 183 177 175 173 174 186 199 197 194 193 188 179 174 170 161
11 358 354 356 335 320 324 339 127 184 222 296 6 9 349 354 358 322 334 346 347 349 184 232 293 296 210 214 241 250 217 221 269 281 303 23 357 304 356 355 324 337 354 340 343 357 336 329 352 3 354 347 342 339 345 355 1 2 360 4 17 31 36 30 27 15 237 236 204 171 157 155 160 160 152 150 165 190 204 197 184 175 168 164 165 164 155
0 349 322 311 305 306 317 349 88 285 336 357 15 15 3 2 359 355 9 15 358 344 327 255 312 325 298 207 217 236 236 225 244 258 302 29 34 14 1 338 325 12 14 347 321 330 344 2 15 5 351 346 344 344 349 354 357 0 6 12 23 34 40 40 41 42 45 52 59 68 86 102 104 102 119 135 124 90 45 134 141 145 142 129 114 121 135
11 6 347 319 296 300 337 13 11 8 9 4 5 11 11 8 3 3 15 18 347 339 351 325 287 296 295 220 225 226 203 200 244 274 327 29 36 2 6 11 9 12 359 331 336 357 11 21 14 353 342 345 351 352 354 355 357 4 12 18 23 31 37 42 46 45 43 45 49 52 56 58 53 53 78 93 80 57 43 63 71 72 87 95 87 80 92
6 354 352 357 325 335 9 25 13 15 22 16 4 2 4 4 3 4 5 357 345 348 351 344 340 359 16 4 333 2 59 218 229 275 8 19 5 4 22 27 14 353 327 340 359 9 15 11 359 348 343 349 357 358 358 358 359 4 12 18 22 27 32 39 45 46 42 42 46 52 53 47 37 38 59 72 68 53 47 65 68 63 66 76 77 72 76
354 338 357 24 12 2 19 32 15 14 20 15 359 355 357 354 352 357 0 342 319 324 335 340 351 10 17 7 359 22 6 331 327 15 358 0 26 32 27 13 1 10 19 12 8 14 15 6 355 349 352 358 1 3 3 3 2 6 13 20 25 28 32 37 42 43 42 42 45 52 54 47 38 40 53 60 60 55 53 58 64 65 64 65 63 59 60
21 0 8 32 34 25 30 32 17 9 11 6 0 2 2 355 345 343 344 330 317 327 339 342 347 5 17 20 34 37 7 3 30 21 349 3 40 36 11 350 16 29 29 23 19 18 14 5 354 347 353 356 358 2 7 8 10 14 21 26 29 31 35 40 42 41 38 40 46 51 51 45 40 47 53 54 54 54 52 53 58 62 62 60 57 54 53
42 11 11 42 46 37 39 44 37 24 17 14 14 13 9 3 356 354 349 338 332 343 352 349 347 359 6 6 22 38 31 28 37 29 11 24 42 34 19 32 36 29 22 23 20 7 356 354 347 343 347 348 348 355 5 12 17 21 24 27 29 31 35 41 44 42 37 38 43 48 49 45 41 45 50 53 54 53 50 49 57 64 65 64 60 55 54
45 20 21 43 49 38 36 39 43 38 29 21 18 15 13 13 16 16 9 353 342 354 4 2 2 11 3 355 11 29 28 26 34 33 24 28 35 25 26 41 42 33 24 22 13 353 342 343 340 339 344 346 348 353 360 5 15 24 29 30 29 28 31 37 43 44 42 42 43 44 45 46 47 49 51 52 52 53 51 50 53 60 65 66 62 56 54
58 42 31 42 56 45 32 29 38 40 31 22 17 14 13 16 20 17 7 353 349 4 15 8 4 21 23 16 29 36 29 24 33 36 33 41 48 40 33 40 43 38 28 12 355 344 340 335 332 341 354 359 359 1 3 5 11 20 28 31 32 32 32 35 38 40 40 42 44 45 46 49 50 52 53 51 51 55 56 53 49 51 57 62 63 58 53
48 43 30 28 38 37 26 25 36 36 27 21 21 15 9 13 17 12 0 349 348 6 31 32 25 28 27 27 44 50 39 28 33 42 43 46 51 52 51 49 41 25 8 355 344 341 344 346 351 360 4 4 4 8 11 13 15 16 18 23 30 36 38 36 34 34 36 38 41 44 48 50 50 49 50 53 57 59 57 51 47 48 53 57 60 58 53
42 48 42 32 31 31 26 29 36 33 24 22 22 13 7 11 10 358 350 348 359 23 34 28 23 30 35 34 38 44 39 29 37 47 48 42 36 44 52 49 28 355 348 355 354 355 5 15 20 22 18 14 11 11 13 18 22 22 21 22 26 32 36 36 35 33 35 38 40 41 43 47 50 52 53 55 57 58 54 47 44 49 55 56 57 58 56
42 55 56 44 36 33 32 34 38 33 28 28 24 13 10 14 5 350 347 356 17 33 36 34 35 42 44 37 30 34 44 45 42 44 46 41 27 30 41 35 7 348 348 351 354 5 18 22 21 21 22 20 18 18 21 25 26 24 25 28 30 30 32 34 35 33 34 37 39 39 40 42 46 51 53 52 52 54 53 47 45 50 56 59 59 59 59